Погода в Кузьмовке

Погода в Кузьмовке : погода сейчас, прогноз погоды и архив. Всё, что Вы хотите узнать о погоде в Кузьмовке!

Поиск расширенной информации на нашем сайте:

Другие новости

Новости СМИ2

Главная страница сайта

Новости сайта

03.07.2017

Напоминаем, что на нашем специализированном сайте Метеоцентр.Азия вы можете получить высокодетализированные автоматические прогнозы погоды по пунктам России, СНГ и мира в авиационном формате (включающие направление и скорость ветра, видимость, явления погоды, количество и форму облачности, нижнюю и верхнюю границу облачности).

Рекомендуем: Комплексные системы безопасности и слаботочные сети читать дальше.

Погода в Кузьмовке - сегодня

Время (UTC), дата Ветер
(°,м/с) 
Видим.   Явления Облачность Т
(°С)
Тd
(°С)
f(%) Тe
(°С)
Pmin
(гПа)
dP
(гПа)
Po
(мм)
O2
(г/м3)
Тmin Tmax R s Состояние
почвы
18 15.06.18 090 (В) 20000 м    3/3 2000 м средняя 
[Ac trans]
+12.6 +9.7 82 +15  1008  1.1  750  287           
21 15.06.18 тихо ()   20000 м    1/0 верхняя 
[Ci fib]
+9.2 +8 92 +9  1009.4  1.3  751  292           
00 16.06.18 тихо ()   20000 м    ясно 
+14.4 +9.8 74 +15  1009.9  0.6  752  286  +9         
03 16.06.18 110 (В) 20000 м    ясно 
+24.4 +10.6 42 +26  1009.4  -0.2  752  276           
06 16.06.18 120 (ЮВ) 20000 м    4/4 600 м 
[Cu hum]
+27.3 +4.2 23 +27  1009.2  -0.1  752  275           
09 16.06.18 170 (Ю) 20000 м    4/4 600 м 
[Cu hum]
+29 +5.9 23 +29  1008.6  -0.6  751  273           
12 16.06.18 130 (ЮВ) 20000 м    3/3 600 м 
[Cu hum]
+27.4 +6.6 27 +27  1008.5  -0.1  751  274    +29       
15 16.06.18 090 (В) 20000 м    ясно 
+19.6 +10.8 57 +23  1009.5  0.7  752  281           
18 16.06.18 тихо ()   20000 м    ясно 
+12.5 +10.2 86 +14  1010.8  1.2  753  288           
21 16.06.18 090 (В) 20000 м    ясно 
+8.8 +8 95 +10  1011.7  0.8  753  293           
00 17.06.18 тихо ()   20000 м    ясно 
+13.7 +10.5 81 +15  1011.9  0.3  753  287  +8         
03 17.06.18 тихо ()   20000 м    1/0 600 м верхняя 
[Ci fib]
+19.3 +13 67 +25  1011.6  -0.2  753  281           
06 17.06.18 340 (С) 20000 м    3/3 600 м 
[Cu hum]
+25.5 +12.8 45 +31  1009.8  -1.6  752  275           
09 17.06.18 190 (Ю) 20000 м    4/4 600 м 
[Cu med, cong]
+28.5 +9 29 +29  1008.2  -1.6  751  272           
12 17.06.18 230 (ЮЗ) 20000 м    9/8 600 м верхняя 
[Sc|Ci sp]
+27.2 +10.3 35 +29  1008  -0.2  751  273    +28.5       
15 17.06.18 200 (Ю) 20000 м    6/3 600 м верхняя 
[Sc|Ci sp]
+21 +12.5 58 +26  1010.9  2.7  753  279           
18 17.06.18 070 (В) 20000 м    3/3 600 м верхняя 
[Sc|Ci sp]
+13 +11.1 88 +17  1012.3  1.2  754  288           
21 17.06.18 090 (В) 20000 м    3/3 600 м 
[Sc]
+11 +10.2 95 +13  1012.2  -0.2  754  290           
00 18.06.18 тихо ()   20000 м    4/0 верхняя 
[Ci sp]
+15.9 +12.1 78 +20  1012.4  0.3  754  285  +10.4         
03 18.06.18 160 (Ю) 20000 м    4/0 верхняя 
[Ci sp]
+21.4 +13.6 61 +28  1011.4  -0.8  753  279           
06 18.06.18 170 (Ю) 20000 м    8/4 600 м верхняя 
[Cu hum|Ci sp]
+25.8 +13.2 46 +31  1009.7  -1.6  752  274           
09 18.06.18 180 (Ю) 20000 м    9/5 600 м верхняя 
[Sc|Ci sp]
+26.9 +13.6 44 +33  1008.6  -1  751  273           
12 18.06.18 170 (Ю) 20000 м    8/3 600 м верхняя 
[Cu hum|Ci fib]
+28.3 +12.9 39 +34  1007.6  -1  750  272    +28.3       
15 18.06.18 090 (В) 20000 м    6/0 верхняя 
[Ci fib]
+19.9 +15.7 77 +31  1007.3  -0.5  750  278           
18 18.06.18 090 (В) 20000 м    8/0 верхняя 
[Ci sp]
+24.2 +13.1 50 +30  1007.5  0.1  750  275           
Время (UTC), дата Ветер
(°,м/с) 
Видим.   Явления Облачность Т
(°С)
Тd
(°С)
f(%) Тe
(°С)
Pmin
(гПа)
dP
(гПа)
Po
(мм)
O2
(г/м3)
Тmin Tmax R s Состояние
почвы

Для получения пояснительной информации подведите курсор к названию столбца.

ПОГОДА в Кузьмовке - архив

Всё, что Вы хотите узнать о погоде в Кузьмовке - удобно и подробно!

Выберите нужную дату (начиная с 1 января 2015* года) и нажмите кнопку "Найти".
Будут отображены архивные сводки погоды по пункту Кузьмовка, начиная с указанной даты.


Отображать данные в формате CSV (для использования в таблицах Excel)


Внимание! Наш архив погоды предназначен исключительно для личного некоммерческого использования в познавательных целях. Если Вам необходимы официальные справки о состоянии погоды (для производственных, юридических, коммерческих и т.п. целей), обращайтесь в органы Росгидромета.

*Примечание: данная дата относится к архиву по метеостанциям СССР (Россия, СНГ, Балтия).
Архив по метеостанциям Зарубежной Европы и Азии (кроме Китая) хранится 10 дней, по другим регионам земного шара (Китай, Африка, Америка, Австралия, Океания) - 1 день.

Кузьмовка - район местоположения метеостанции


Название, широта, долгота, высота метеостанции:
Кузьмовка 62.3°ш. 92.1°д. 60 м над ур. моря [Российская Федерация]

Дополнительная информация

В oтличие oт бoльшинства пoгoдных сайтoв мы публикуем пoдрoбную метеoинфoрмацию в детальнoм прoфессиoнальнoм фoрмате.

Характеристики температуры и влажнoсти вoздуха измеряются на высoте 2 м в тени вдали oт зданий и деревьев.
Скoрoсть ветра измеряется на высoте 10 м (на урoвне рoста челoвека скoрoсть ветра ниже в 1.5-2 раза). Если метеoстанция нахoдится в гoрoде или в лесу, тo скoрoсть ветра занижена на 2-4 м/с пo сравнению с oткрытым местoм. Скoрoсть ветра над акватoриями крупных рек и oзёр, а также на вершинах хoлмoв на 2-5 м/с выше, чем в oбычных услoвиях.
Атмoсфернoе давление в разных тoчках местнoсти мoжет значительнo oтличаться oт давления на метеoстанции, в зависимoсти oт услoвий рельефа (при пoдъёме на 10 м давление пoнижается примернo на 1 мм рт.ст.).